Location: New Town
(33.2710°N, 90.7534°W)
Time: 01:47:51
(UTC+00:00)

deb Explorer IX - Visible Passes

Search period start: 12 May 2021 00:00
Search period end: 22 May 2021 00:00
Orbit: 541 x 1098 km, 38.8° (Epoch: 11 May)

Date Brightness Start Highest point End Pass type
(mag) Time Alt. Az. Time Alt. Az. Time Alt. Az.
12 May ? 02:10:18 10° SSW 02:16:37 37° SSE 02:20:25 20° E visible
12 May ? 03:57:00 10° WSW 04:01:48 48° WSW 04:01:48 48° WSW visible
12 May ? 09:24:56 43° SW 09:25:20 44° SSW 09:29:23 10° SE visible
13 May ? 01:46:19 10° SSW 01:52:44 38° SSE 01:58:34 10° E visible
13 May ? 03:33:01 10° WSW 03:39:50 82° NNW 03:40:57 62° NE visible
13 May ? 05:21:20 10° W 05:22:18 14° WNW 05:22:18 14° WNW visible
13 May ? 09:04:06 22° SSE 09:04:06 22° SSE 09:05:48 10° SE visible
14 May ? 01:22:20 10° SSW 01:28:51 38° SE 01:34:51 10° E visible
14 May ? 03:09:02 10° WSW 03:16:00 82° NNW 03:19:37 26° ENE visible
14 May ? 04:57:21 10° W 05:00:57 31° WNW 05:00:57 31° WNW visible
15 May ? 02:45:03 10° WSW 02:52:07 82° NNW 02:57:52 13° ENE visible
15 May ? 04:33:22 10° W 04:39:09 49° NNW 04:39:09 49° NNW visible
16 May ? 02:21:04 10° WSW 02:28:14 82° NNW 02:34:38 10° ENE visible
16 May ? 04:09:22 10° W 04:15:55 51° N 04:17:01 46° NNE visible
16 May ? 05:57:30 10° WNW 05:58:17 14° WNW 05:58:17 14° WNW visible
17 May ? 01:57:05 10° WSW 02:04:20 83° NNW 02:10:54 10° ENE visible
17 May ? 03:45:23 10° W 03:52:04 52° N 03:54:39 33° NE visible
17 May ? 05:33:31 10° WNW 05:35:54 23° WNW 05:35:54 23° WNW visible
18 May ? 01:33:08 10° WSW 01:40:26 83° NNW 01:47:09 10° ENE visible
18 May ? 03:21:23 10° W 03:28:13 53° N 03:32:07 23° ENE visible
18 May ? 05:09:32 10° WNW 05:13:21 35° NW 05:13:21 35° NW visible
19 May ? 02:57:24 10° W 03:04:20 54° N 03:09:28 16° ENE visible
19 May ? 04:45:33 10° WNW 04:50:42 50° NW 04:50:42 50° NW visible
20 May ? 02:33:25 10° W 02:40:27 54° N 02:46:45 10° ENE visible
20 May ? 04:21:33 10° WNW 04:27:59 64° N 04:27:59 64° N visible
21 May ? 02:09:26 10° W 02:16:33 55° N 02:23:03 10° ENE visible
21 May ? 03:57:34 10° WNW 04:04:29 66° NNE 04:05:13 61° NE visible
21 May ? 05:45:24 10° WNW 05:46:27 15° WNW 05:46:27 15° WNW visible
